Port Isabel, TX

11:55 PM CST on December 11, 2017 (GMT -0600)
Port Isabel-Cameron County

Weather History for KPIL - February, 2013

Change the Weather History Date:

Tuesday, February 5, 2013

  Actual Average (KBRO) Record (KBRO)
Temperature  
Mean Temperature 75 °F -  
Max Temperature 86 °F 70 °F 88 °F (1986)
Min Temperature 64 °F 52 °F 27 °F (1883)
Cooling Degree Days 10    
Growing Degree Days 25 (Base 50)    
Moisture  
Dew Point 67 °F    
Average Humidity 82    
Maximum Humidity 94    
Minimum Humidity 48    
Precipitation  
Precipitation 0.00 in - - ()
Sea Level Pressure  
Sea Level Pressure 29.90 in    
Wind  
Wind Speed 8 mph (SE)    
Max Wind Speed 17 mph    
Max Gust Speed 21 mph    
Visibility 7 miles    
Events      
Averages and records for this station are not official NWS values.
T = Trace of Precipitation, MM = Missing Value Source: NWS Daily Summary

Daily Weather History Graph

Daily Weather History Graph

Search for Another Location

Airport or City:

Trip Planner

Search our weather history database for the weather conditions in past years. The results will help you decide how hot, cold, wet, or windy it might be!

Date:

Astronomy

Feb. 05, 2013 Rise Set
Actual Time 7:11 AM CST 6:15 PM CST
Civil Twilight 6:47 AM CST 6:39 PM CST
Nautical Twilight 6:20 AM CST 7:07 PM CST
Astronomical Twilight 5:52 AM CST 7:34 PM CST
Moon 2:44 AM CST (2/5) 1:45 PM CST (2/5)
Length of Visible Light 11h 52m
Length of Day
11h 04m
Waning Crescent, 26% of the Moon is Illuminated
Feb 5
Waning Crescent
Feb 10
New
Feb 17
First Quarter
Feb 25
Full
Mar 4
Last Quarter

Hourly Weather History & Observations

Time (CST) Temp. Heat Index Dew Point Humidity Pressure Visibility Wind Dir Wind Speed Gust Speed Precip Events Conditions
12:53 AM 66.0 °F - 63.0 °F 90% 29.87 in 8.0 mi SSE 5.8 mph - N/A   Clear
1:53 AM 66.0 °F - 63.0 °F 90% 29.87 in 8.0 mi South 5.8 mph - N/A   Clear
2:53 AM 68.0 °F - 64.0 °F 87% 29.86 in 8.0 mi South 8.1 mph - N/A   Clear
3:53 AM 66.0 °F - 63.0 °F 90% 29.87 in 7.0 mi South 4.6 mph - N/A   Clear
4:53 AM 66.0 °F - 63.0 °F 90% 29.88 in 7.0 mi SSW 4.6 mph - N/A   Partly Cloudy
5:53 AM 64.9 °F - 62.1 °F 90% 29.89 in 4.0 mi SSE 5.8 mph - N/A   Clear
6:53 AM 64.0 °F - 62.1 °F 93% 29.91 in 6.0 mi South 3.5 mph - N/A   Clear
7:53 AM 66.0 °F - 63.0 °F 90% 29.92 in 6.0 mi Calm Calm - N/A   Clear
9:53 AM 75.0 °F - 66.9 °F 76% 29.97 in 8.0 mi SSW 9.2 mph - N/A   Clear
10:53 AM 81.0 °F 83.0 °F 66.0 °F 60% 29.95 in 9.0 mi South 11.5 mph - N/A   Clear
11:53 AM 82.9 °F 84.6 °F 64.9 °F 54% 29.93 in 9.0 mi SSE 10.4 mph 16.1 mph N/A   Clear
12:53 PM 86.0 °F 87.3 °F 64.0 °F 48% 29.91 in 9.0 mi ESE 8.1 mph - N/A   Clear
1:53 PM 84.0 °F 86.5 °F 66.9 °F 56% 29.88 in 9.0 mi ESE 17.3 mph - N/A   Clear
2:53 PM 82.0 °F 84.5 °F 66.9 °F 60% 29.87 in 9.0 mi ESE 15.0 mph - N/A   Clear
3:53 PM 80.1 °F 82.7 °F 68.0 °F 67% 29.86 in 8.0 mi ESE 16.1 mph - N/A   Clear
4:53 PM 78.1 °F - 68.0 °F 71% 29.86 in 9.0 mi ESE 11.5 mph - N/A   Clear
5:53 PM 73.9 °F - 68.0 °F 82% 29.87 in 7.0 mi ESE 10.4 mph - N/A   Clear
6:53 PM 72.0 °F - 68.0 °F 87% 29.88 in 7.0 mi ESE 11.5 mph - N/A   Clear
7:53 PM 72.0 °F - 68.0 °F 87% 29.90 in 6.0 mi ESE 9.2 mph - N/A   Clear
8:02 PM 71.6 °F - 68.0 °F 88% 29.91 in 7.0 mi SE 9.2 mph - N/A   Partly Cloudy
8:48 PM 71.6 °F - 69.8 °F 94% 29.93 in 7.0 mi ESE 8.1 mph - N/A   Mostly Cloudy
8:53 PM 73.0 °F - 69.1 °F 87% 29.93 in 7.0 mi ESE 9.2 mph - N/A   Mostly Cloudy
9:53 PM 73.0 °F - 69.1 °F 87% 29.92 in 6.0 mi ESE 12.7 mph - N/A   Mostly Cloudy
10:04 PM 73.4 °F - 69.8 °F 88% 29.92 in 6.0 mi ESE 11.5 mph - N/A   Mostly Cloudy
10:27 PM 71.6 °F - 69.8 °F 94% 29.92 in 6.0 mi SE 10.4 mph - N/A   Mostly Cloudy
10:36 PM 71.6 °F - 69.8 °F 94% 29.92 in 6.0 mi SE 10.4 mph - N/A   Overcast
10:53 PM 73.0 °F - 70.0 °F 90% 29.92 in 6.0 mi ESE 11.5 mph - N/A   Overcast
11:24 PM 73.4 °F - 69.8 °F 88% 29.91 in 6.0 mi SE 12.7 mph - N/A   Overcast
11:42 PM 71.6 °F - 69.8 °F 94% 29.91 in 6.0 mi SE 11.5 mph - N/A   Overcast
11:53 PM 73.0 °F - 69.1 °F 87% 29.91 in 6.0 mi SE 16.1 mph 20.7 mph N/A   Overcast